Regional Weather Roundup
Issued by NWS Melbourne, FL

Current Version | Previous Version | Text Only | Print | Product List | Glossary On
Versions: 1 2 3 4 5 6 7 8 9 10 11 12 13 14 15 16 17 18 19 20 21 22 23 24 25 26 27 28 29 30 31 32 33 34 35 36 37 38 39 40 41 42 43 44 45 46 47 48 49 50
000
ASUS42 KMLB 240012
RWRMLB
HOURLY WEATHER ROUNDUP AROUND FLORIDA
NATIONAL WEATHER SERVICE OFFICE MELBOURNE FL
800 PM EDT TUE JUL 23 2019

CITY           SKY/WX    TMP DP  RH WIND       PRES   REMARKS
MELBOURNE      FAIR      82  75  79 SW9       29.93S
FORT PIERCE    MOCLDY    85  72  65 S6        29.94S
ORLANDO INTL   MOCLDY    81  73  76 SW8       29.92S
DAYTONA BEACH  MOCLDY    81  75  82 SW9       29.90R
VERO BEACH     FAIR      83  74  74 SW8       29.94S
$$
...ELSEWHERE ACROSS CENTRAL FLORIDA...

CITY           SKY/WX    TMP DP  RH WIND       PRES   REMARKS
PATRICK AFB    FAIR      82  78  89 SW10      29.92S
KSC            PTCLDY    82  64  54 W10       29.90S
CAPE CANAVERAL CLEAR     81  55  40 SW5       29.90F
TITUSVILLE     CLEAR     84  72  65 SW8       29.92F
ORLANDO EXEC   FAIR      82  72  71 SW8       29.92R
LEESBURG       FAIR      82  75  79 SW6       29.92R
SANFORD        FAIR      83  73  72 SW7       29.91R
DELAND         FAIR      81  73  78 SW6       29.91R
NEW SMYRNA BCH PTCLDY    77  75  94 SW5       29.91S
WINTER HAVEN   FAIR      81  74  79 SW7       29.95R
KISSIMMEE      FAIR      81  75  82 SW6       29.94R
OKEECHOBEE     FAIR      81  72  74 W6        29.95R
TAMPA          MOCLDY    84  74  71 SW8       29.93R
$$
...NORTHERN FLORIDA...

CITY           SKY/WX    TMP DP  RH WIND       PRES   REMARKS
PALM COAST     FAIR      81  74  78 SW5       29.90R
ST AUGUSTINE   FAIR      80  75  84 SE6       29.90R
OCALA          FAIR      85  72  65 W7        29.92R
GAINESVILLE    FAIR      84  70  62 SW10      29.92R
JACKSONVILLE   MOCLDY    84  71  65 SW7       29.86R
TALLAHASSEE    CLOUDY    77  75  93 CALM      29.88R
$$
...ALONG THE SOUTHEAST COAST TO THE KEYS...

CITY           SKY/WX    TMP DP  RH WIND       PRES   REMARKS
STUART         TSTM      81  70  69 S12       29.96S
WEST PALM BCH  MOCLDY    76  72  87 S3        29.96F
MIAMI          MOCLDY    82  74  76 S3        29.97R
KEY WEST       NOT AVBL
$$
...MARINE REPORTS...

STATION/POSITION TIME  TEMP    WIND        PRES    WAVE   SWELL
                       AIR SEA DIR/SP/G            HT/PER HT/PER
                 (UTC) (F)     (DEG/KT/KT) (MB)    (FT/S) (FT/S)
ST AUGUSTINE FP  0000   79 79  170/  8/  9 1012.6R
20NM E CAPE CANA 2350   81 83  210/ 16/ 17 1012.8F   3/ 4   2/ 7
TRIDENT PIER     2330   81 83  210/  7/ 11 1014.3F
SEBASTIAN INLET  2345   80 79  210/  6     1015.0R
4NM E PORT CANAV 0000      82                N/A     2/ 7
6NM NE FPR INLET 0000      82                N/A     1/ 7
SETTLEMENT PT GB 0000   84     170/  9/ 13 1014.7R
$$



USA.gov is the U.S. government's official web portal to all federal, state and local government web resources and services.